Regional Weather Roundup
Issued by NWS

Home | Current Version | Previous Version | Text Only | Print | Product List | Glossary Off
Versions: 1 2 3 4 5 6 7 8 9 10 11 12 13 14 15 16 17 18 19 20 21 22 23 24 25 26 27 28 29 30 31 32 33 34 35 36 37 38 39 40 41 42 43 44 45 46 47 48 49 50

124
ASUS43 KMPX 110210
RWRMN
WEATHER ROUNDUP FOR MINNESOTA
NATIONAL WEATHER SERVICE TWIN CITIES/CHANHASSEN MN
800 PM CST SAT DEC 10 2016


NOTE: "FAIR" INDICATES FEW OR NO CLOUDS BELOW 12,000 FEET WITH NO
SIGNIFICANT WEATHER AND/OR OBSTRUCTIONS TO VISIBILITY. N/A MEANS
CURRENT SKY AND/OR WEATHER CONDITIONS ARE NOT AVAILABLE.

MNZ060>063-068>070-110300-
   Twin Cities Metro

CITY           SKY/WX    TMP DP  RH WIND       PRES   REMARKS
TWIN CITIES    LGT SNOW  12   7  80 E10       30.21F WCI  -1
ST PAUL        LGT SNOW  12   9  87 SE10      30.24F FOG     WCI  -1
CRYSTAL        LGT SNOW  12   6  77 E9        30.20F WCI   0
BLAINE         LGT SNOW  14  10  85 E7        30.21F WCI   4
LAKEVILLE      LGT SNOW  10   9  92 E8        30.20S WCI  -1
EDEN PRAIRIE   LGT SNOW  12   7  80 E7        30.19F WCI   1
SOUTH ST PAUL  LGT SNOW  13   9  83 CALM      30.23S
LAKE ELMO      LGT SNOW  14  10  85 E6        30.23F WCI   5
$$
MNZ001>005-007-008-013>017-022>024-027-028-110300-
   Northwest Minnesota

CITY           SKY/WX    TMP DP  RH WIND       PRES   REMARKS
BEMIDJI        CLOUDY     1  -5  77 E8        30.19F WCI -14
HALLOCK        CLOUDY   -11 -17  77 CALM      30.27F
ROSEAU         CLOUDY    -9 -15  77 CALM      30.26F
WARROAD        CLOUDY   -11 -17  77 CALM      30.26S
THIEF RVR FALL CLOUDY    -7 -11  83 NE8       30.24F WCI -23
CROOKSTON      CLOUDY    -4  -8  84 E7        30.25F WCI -18
FOSSTON        CLOUDY    -2  -8  78 E5        30.20F WCI -12
DETROIT LAKES  CLOUDY     3   0  85 SE7       30.17S WCI  -9
MOORHEAD       MIX PCPN   1  -4  78 E8        30.20F WCI -12
PARK RAPIDS    CLOUDY     4  -4  69 E7        30.17F WCI  -8
$$
MNZ006-009>011-018-025>026-110300-
   North Central Minnesota

CITY           SKY/WX    TMP DP  RH WIND       PRES   REMARKS
BAUDETTE       CLOUDY    -4  -8  83 NE3       30.24F
INTL FALLS     CLOUDY   -14 -19  79 CALM      30.25F
WASKISH        CLOUDY    -6  -9  84 CALM      30.23F
BIG FORK       CLOUDY   -11 -17  77 CALM      30.22F
LONGVILLE      CLOUDY    -2  -6  84 CALM      30.20F
GRAND RAPIDS   CLOUDY    -5  -8  87 CALM      30.23F
CRANE LAKE     CLOUDY    -9 -13  84 CALM      30.29F
ORR            CLOUDY   -11 -17  77 CALM      30.21F
COOK           CLOUDY    -9 -13  84 CALM      30.24S
$$
MNZ012-019>021-037-110300-
   Northeast Minnesota

CITY           SKY/WX    TMP DP  RH WIND       PRES   REMARKS
DULUTH         CLOUDY     1  -4  79 NE5       30.21F WCI  -9
ELY            CLOUDY    -9 -13  84 CALM      30.24S
HIBBING        CLOUDY   -10 -14  82 CALM      30.22F
EVELETH        CLOUDY    -8 -13  76 CALM      30.24S
DULUTH HARBOR  MOCLDY    10   3  72 CALM      30.29F
TWO HARBORS    CLOUDY     3  -4  72 CALM      30.24S
SILVER BAY     CLOUDY     0  -4  85 N3        30.24F
GRAND MARAIS     N/A      5  -4  66 N8        30.31F WCI  -8
G MARAIS ARPRT PTCLDY   -11 -17  77 NW6       30.19F WCI -25
$$
MNZ029>031-032-039>041-046>048-054>057-064-110300-
   West Central Minnesota

CITY           SKY/WX    TMP DP  RH WIND       PRES   REMARKS
FERGUS FALLS   FLURRIES   5   0  78 E6        30.22F WCI  -6
WHEATON        LGT SNOW   9   7  92 E8        30.18F WCI  -4
MORRIS         LGT SNOW   9   5  85 E14       30.14S WCI  -8
ALEXANDRIA     LGT SNOW   7   3  84 E10       30.15F FOG     WCI  -8
ELBOW LAKE     LGT SNOW   6   3  86 E9        30.16F WCI  -8
WADENA         FLURRIES   3  -2  78 E6        30.16F WCI  -8
GLENWOOD       LGT SNOW   9   5  85 E12       30.15S WCI  -6
APPLETON       LGT SNOW  10   7  85 E9        30.15S WCI  -2
BENSON         MIX PCPN  10   7  85 SE8       30.15S WCI  -1
ORTONVILLE     LGT SNOW   9   3  78 CALM      30.14R
MADISON        LGT SNOW  12  10  92 E7        30.14S WCI   2
WILLMAR        LGT SNOW  12   9  85 E12       30.15F WCI  -2
$$
MNZ033>034-036-042>043-049>051-058-059-110300-
   Central Minnesota

CITY           SKY/WX    TMP DP  RH WIND       PRES   REMARKS
ST CLOUD       LGT SNOW  10   5  80 E7        30.19F WCI  -1
PAYNESVILLE    LGT SNOW  10   7  88 E7        30.17S WCI  -1
AITKIN         CLOUDY     7  -2  66 E5        30.20F WCI  -2
PINE RIVER     CLOUDY     3   0  85 E7        30.22F WCI  -9
BRAINERD       CLOUDY     6   1  80 E3        30.21S
LONG PRAIRIE   LGT SNOW   7   3  85 N6        30.17S WCI  -3
LITTLE FALLS   LGT SNOW  10   5  79 E7        30.20S WCI   0
LITCHFIELD     LGT SNOW  10   9  92 E8        30.17S WCI  -1
BUFFALO        LGT SNOW  11   8  85 E7        30.21F WCI   1
MAPLE LAKE     LGT SNOW  13  10  90 E7        30.20F WCI   2
HUTCHINSON     LGT SNOW  12   9  87 E12       30.16F WCI  -2
$$
MNZ037-044-045-052-053-110300-
   East Central Minnesota

CITY           SKY/WX    TMP DP  RH WIND       PRES   REMARKS
PRINCETON      LGT SNOW  12   7  79 E6        30.20F WCI   3
MORA           FLURRIES  12   5  73 SE5       30.24S WCI   4
CAMBRIDGE      LGT SNOW  12   5  73 E5        30.20F WCI   4
RUSH CITY      CLOUDY    10   5  79 E3        30.23F
MOOSE LAKE     CLOUDY     7   0  72 NE3       30.22F
HINCKLEY       CLOUDY    12   5  73 E3        30.23F
CLOQUET        CLOUDY     0  -6  78 CALM      30.21F
MCGREGOR       CLOUDY     5   0  78 NE6       30.22F WCI  -6
$$
MNZ071>073-080-081-089-090-097-098-110300-
   Southwest Minnesota

CITY           SKY/WX    TMP DP  RH WIND       PRES   REMARKS
MONTEVIDEO     LGT SNOW  10   9  92 SE10      30.15F WCI  -3
GRANITE FALLS  LGT SNOW  13  10  86 E9        30.14F WCI   1
CANBY          LGT SNOW  11   8  89 CALM      30.13R
MARSHALL       LGT SNOW  10   7  85 E10       30.10F FOG     WCI  -3
REDWOOD FALLS  LGT SNOW  12   8  84 E9        30.13F VSB 1   WCI   0
OLIVIA         LGT SNOW  12   9  85 E8        30.13F WCI   1
PIPESTONE      LGT SNOW  12  10  92 SE14      30.01F WCI  -3
WINDOM         LGT SNOW  12  10  92 MISG      30.07F
WORTHINGTON    FLURRIES  15  13  91 E14       30.04S WCI   0
JACKSON        LGT SNOW  14  12  92 E14       30.06F WCI  -1
TRACY          LGT SNOW  12   9  89 E9        30.09S WCI  -1
SLAYTON        LGT SNOW  11   9  90 E9        30.05F WCI  -2
$$
MNZ065>067-074>077-082>085-091>093-110300-
   South Central Minnesota

CITY           SKY/WX    TMP DP  RH WIND       PRES   REMARKS
MANKATO        LGT SNOW  12   9  87 E13       30.16S FOG     WCI  -3
NEW ULM        LGT SNOW  12   9  85 E12       30.13F WCI  -2
ST JAMES       LGT SNOW  14  10  85 E10       30.13S WCI   1
FAIRMONT       LGT SNOW  16  13  88 E13       30.10F FOG     WCI   2
GLENCOE        LGT SNOW  12  10  92 E9        30.17F WCI   0
FARIBAULT      LGT SNOW  12   9  85 E8        30.18F WCI   1
OWATONNA       LGT SNOW  12   9  85 E12       30.16F WCI  -2
WASECA         LGT SNOW  14  10  85 E14       30.17F WCI  -1
ALBERT LEA     LGT SNOW  18  16  93 E13       30.14F WCI   4
$$
MNZ078>079-086>088-094>096-110300-
   Southeast Minnesota

CITY           SKY/WX    TMP DP  RH WIND       PRES   REMARKS
ROCHESTER      LGT SNOW  12   9  87 SE13      30.17F FOG     WCI  -3
RED WING       LGT SNOW  14   9  79 E8        30.22F WCI   3
STANTON        LGT SNOW  13   9  83 E6        30.19F WCI   4
DODGE CENTER   LGT SNOW  10   9  92 E12       30.15F WCI  -4
WINONA         LGT SNOW  18  14  86 SE8       30.26F WCI   7
AUSTIN         LGT SNOW  16  10  79 SE13      30.14F WCI   2
PRESTON        LGT SNOW  12   9  88 E6        30.18F WCI   3
$$
ABBREVIATIONS USED IN REMARKS
   TC - TEMPERATURES IN CELSIUS
  WCI - WIND CHILL INDEX
   HX - HEAT INDEX
  VSB - VISIBILITY
$$




USA.gov is the U.S. government's official web portal to all federal, state and local government web resources and services.